Location: Burgwalden
(48.2830°N, 10.7576°E)
Time: 02:15:22
(UTC+00:00)

Cosmos 1766 Rocket - Pass Details

Date: 26 September 2023
Orbit: 603 x 630 km, 82.5° (Epoch: 04 December)

Event Time Altitude Azimuth Distance (km) Brightness Sun altitude
Rises 03:41:19 0° 340° (NNW) 2,886 7.0 -15.2°
Reaches altitude 10° 03:43:48 10° 328° (NNW) 1,981 6.0 -14.8°
Maximum altitude 03:47:27 26° 271° (W) 1,209 4.5 -14.2°
Enters shadow 03:49:10 21° 236° (SW) 1,415 4.8 -13.9°
